User: anonymous   Login
Location: Unspecified
(0.0000°N, 0.0000°E)
Time: 01:56:38
(UTC+02:00)
Language:

Cosmos 1315 Rocket - Orbit

View from above orbital plane
View from above orbital plane
View from above satellite
View from above satellite

Ground track
Ground track

The orbit data is extracted from the following two-line orbital elements,

1 12904U 81103B   14295.80267474  .00003819  00000-0  28026-3 0  6111
2 12904 081.1755 300.2645 0029745 011.4854 348.7039 15.02917618347216
Epoch (UTC): 22 October 2014 19:15:51
Eccentricity: 0.0029745
inclination: 81.1755°
perigee height: 537 km
apogee height: 578 km
right ascension of ascending node: 300.2645°
argument of perigee: 11.4854°
revolutions per day: 15.02917618
mean anomaly at epoch: 348.7039°
orbit number at epoch: 34721

The dashed part of the orbit path shows where the satellite is in the earth's shadow,  

DLR